Time,TemperatureF,DewpointF,PressureIn,WindDirection,WindDirectionDegrees,WindSpeedMPH,WindSpeedGustMPH,Humidity,HourlyPrecipIn,Conditions,Clouds,dailyrainin,SolarRadiationWatts/m^2,SoftwareType,DateUTC
2013-05-14 00:00:00,48.5,42.3,30.18,WSW,246,9.0,13.0,79,0.00,,---,0.22,0.00,VWS V14.01,2013-05-14 07:00:00,
2013-05-14 00:01:00,48.5,42.3,30.17,West,260,8.0,12.0,79,0.00,,---,0.00,0.00,VWS V14.01,2013-05-14 07:01:00,
2013-05-14 00:06:00,48.4,42.2,30.17,WSW,248,3.0,12.0,79,0.00,,---,0.00,0.00,VWS V14.01,2013-05-14 07:06:00,
2013-05-14 00:11:00,48.3,42.1,30.17,WSW,241,9.0,12.0,79,0.00,,---,0.00,0.00,VWS V14.01,2013-05-14 07:11:00,
2013-05-14 00:16:00,48.3,42.1,30.17,SW,231,2.0,12.0,79,0.00,,---,0.00,0.00,VWS V14.01,2013-05-14 07:16:00,
2013-05-14 00:21:00,48.2,42.3,30.17,WSW,257,9.0,12.0,80,0.00,,---,0.00,0.00,VWS V14.01,2013-05-14 07:21:00,
2013-05-14 00:26:00,48.1,42.2,30.17,SW,231,1.0,12.0,80,0.00,,---,0.00,0.00,VWS V14.01,2013-05-14 07:26:00,
2013-05-14 00:30:00,48.1,42.2,30.17,SW,231,5.0,12.0,80,0.00,,---,0.00,0.00,VWS V14.01,2013-05-14 07:30:00,
2013-05-14 00:31:00,48.1,42.2,30.17,SW,230,5.0,7.0,80,0.00,,---,0.00,0.00,VWS V14.01,2013-05-14 07:31:00,
2013-05-14 00:36:00,48.0,42.1,30.17,SW,230,5.0,7.0,80,0.00,,---,0.00,0.00,VWS V14.01,2013-05-14 07:36:00,
2013-05-14 00:41:00,47.9,42.0,30.17,SW,226,3.0,7.0,80,0.00,,---,0.00,0.00,VWS V14.01,2013-05-14 07:41:00,
2013-05-14 00:46:00,47.8,41.9,30.17,SW,233,2.0,7.0,80,0.00,,---,0.00,0.00,VWS V14.01,2013-05-14 07:46:00,
2013-05-14 00:51:00,47.8,41.9,30.18,SW,234,0.0,7.0,80,0.00,,---,0.00,0.00,VWS V14.01,2013-05-14 07:51:00,
2013-05-14 00:56:00,47.7,41.8,30.18,SW,234,0.0,7.0,80,0.00,,---,0.00,0.00,VWS V14.01,2013-05-14 07:56:00,
2013-05-14 01:00:00,47.7,41.8,30.18,SW,220,5.0,8.0,80,0.00,,---,0.00,0.00,VWS V14.01,2013-05-14 08:00:00,
2013-05-14 01:01:00,47.7,41.5,30.18,SW,218,5.0,8.0,79,0.00,,---,0.00,0.00,VWS V14.01,2013-05-14 08:01:00,
2013-05-14 01:06:00,47.7,41.5,30.19,SW,214,1.0,8.0,79,0.00,,---,0.00,0.00,VWS V14.01,2013-05-14 08:06:00,
2013-05-14 01:11:00,47.7,41.5,30.19,SW,223,3.0,10.0,79,0.00,,---,0.00,0.00,VWS V14.01,2013-05-14 08:11:00,
2013-05-14 01:16:00,47.7,41.5,30.19,SW,215,5.0,10.0,79,0.00,,---,0.00,0.00,VWS V14.01,2013-05-14 08:16:00,
2013-05-14 01:21:00,47.8,41.6,30.19,SSW,210,3.0,10.0,79,0.00,,---,0.00,0.00,VWS V14.01,2013-05-14 08:21:00,
2013-05-14 01:26:00,47.9,41.7,30.18,SSW,206,1.0,10.0,79,0.00,,---,0.00,0.00,VWS V14.01,2013-05-14 08:26:00,
2013-05-14 01:30:00,47.9,41.7,30.18,SSW,200,6.0,10.0,79,0.00,,---,0.00,0.00,VWS V14.01,2013-05-14 08:30:00,
2013-05-14 01:31:00,47.9,41.7,30.18,SSW,200,3.0,8.0,79,0.00,,---,0.00,0.00,VWS V14.01,2013-05-14 08:31:00,
2013-05-14 01:35:00,47.9,41.4,30.18,SSW,197,2.0,8.0,78,0.00,,---,0.00,0.00,VWS V14.01,2013-05-14 08:35:00,
2013-05-14 01:40:00,48.0,41.8,30.18,SSW,200,7.0,9.0,79,0.00,,---,0.00,0.00,VWS V14.01,2013-05-14 08:40:00,
2013-05-14 01:45:00,48.0,41.8,30.18,SSW,195,6.0,9.0,79,0.00,,---,0.00,0.00,VWS V14.01,2013-05-14 08:45:00,
2013-05-14 01:50:00,48.1,41.9,30.18,SSW,204,4.0,9.0,79,0.00,,---,0.00,0.00,VWS V14.01,2013-05-14 08:50:00,
2013-05-14 01:55:00,48.1,41.9,30.18,SSW,208,6.0,10.0,79,0.00,,---,0.00,0.00,VWS V14.01,2013-05-14 08:55:00,
2013-05-14 02:00:00,48.2,42.0,30.18,SW,225,1.0,8.0,79,0.00,,---,0.00,0.00,VWS V14.01,2013-05-14 09:00:00,
2013-05-14 02:05:00,48.3,42.1,30.18,SSW,199,5.0,8.0,79,0.00,,---,0.00,0.00,VWS V14.01,2013-05-14 09:05:00,
2013-05-14 02:10:00,48.3,42.1,30.19,SSW,198,7.0,11.0,79,0.00,,---,0.00,0.00,VWS V14.01,2013-05-14 09:10:00,
2013-05-14 02:15:00,48.4,41.9,30.19,South,185,1.0,11.0,78,0.00,,---,0.00,0.00,VWS V14.01,2013-05-14 09:15:00,
2013-05-14 02:20:00,48.4,41.9,30.19,SW,223,3.0,11.0,78,0.00,,---,0.00,0.00,VWS V14.01,2013-05-14 09:20:00,
2013-05-14 02:25:00,48.4,41.9,30.19,SSW,202,1.0,11.0,78,0.00,,---,0.00,0.00,VWS V14.01,2013-05-14 09:25:00,
2013-05-14 02:30:00,48.4,41.9,30.19,SSW,202,0.0,6.0,78,0.00,,---,0.00,0.00,VWS V14.01,2013-05-14 09:30:00,
2013-05-14 02:35:00,48.4,41.9,30.20,SSW,202,7.0,8.0,78,0.00,,---,0.00,0.00,VWS V14.01,2013-05-14 09:35:00,
2013-05-14 02:40:00,48.4,41.9,30.20,SSW,200,1.0,8.0,78,0.00,,---,0.00,0.00,VWS V14.01,2013-05-14 09:40:00,
2013-05-14 02:45:00,48.4,41.9,30.20,South,189,6.0,9.0,78,0.00,,---,0.00,0.00,VWS V14.01,2013-05-14 09:45:00,
2013-05-14 02:50:00,48.3,41.8,30.20,SSW,208,7.0,9.0,78,0.00,,---,0.00,0.00,VWS V14.01,2013-05-14 09:50:00,
2013-05-14 02:55:00,48.3,41.8,30.19,South,191,7.0,10.0,78,0.00,,---,0.00,0.00,VWS V14.01,2013-05-14 09:55:00,
2013-05-14 03:00:00,48.2,41.7,30.19,SW,215,3.0,9.0,78,0.00,,---,0.00,0.00,VWS V14.01,2013-05-14 10:00:00,
2013-05-14 03:05:00,48.1,41.6,30.19,SSW,208,5.0,10.0,78,0.00,,---,0.00,0.00,VWS V14.01,2013-05-14 10:05:00,
2013-05-14 03:10:00,48.1,41.9,30.20,SSW,195,2.0,10.0,79,0.00,,---,0.00,0.00,VWS V14.01,2013-05-14 10:10:00,
2013-05-14 03:15:00,48.1,41.9,30.20,SSW,210,7.0,10.0,79,0.00,,---,0.00,0.00,VWS V14.01,2013-05-14 10:15:00,
2013-05-14 03:20:00,48.1,41.9,30.20,SSW,207,9.0,10.0,79,0.00,,---,0.00,0.00,VWS V14.01,2013-05-14 10:20:00,
2013-05-14 03:25:00,48.1,41.9,30.20,SW,220,6.0,10.0,79,0.00,,---,0.00,0.00,VWS V14.01,2013-05-14 10:25:00,
2013-05-14 03:30:00,48.1,41.9,30.20,SSW,210,7.0,8.0,79,0.00,,---,0.00,0.00,VWS V14.01,2013-05-14 10:30:00,
2013-05-14 03:35:00,48.0,41.5,30.20,South,188,6.0,12.0,78,0.00,,---,0.00,0.00,VWS V14.01,2013-05-14 10:35:00,
2013-05-14 03:40:00,47.9,41.7,30.20,SW,215,9.0,12.0,79,0.00,,---,0.00,0.00,VWS V14.01,2013-05-14 10:40:00,
2013-05-14 03:45:00,47.8,41.3,30.20,SSW,209,7.0,12.0,78,0.00,,---,0.00,0.00,VWS V14.01,2013-05-14 10:45:00,
2013-05-14 03:50:00,47.8,41.6,30.20,South,183,7.0,12.0,79,0.00,,---,0.00,0.00,VWS V14.01,2013-05-14 10:50:00,
2013-05-14 03:55:00,47.7,41.5,30.20,SSW,202,7.0,13.0,79,0.00,,---,0.00,0.00,VWS V14.01,2013-05-14 10:55:00,
2013-05-14 04:00:00,47.6,41.4,30.20,SSW,208,6.0,9.0,79,0.00,,---,0.00,0.00,VWS V14.01,2013-05-14 11:00:00,
2013-05-14 04:05:00,47.4,41.2,30.20,SSW,208,9.0,9.0,79,0.00,,---,0.00,0.00,VWS V14.01,2013-05-14 11:05:00,
2013-05-14 04:10:00,47.4,41.2,30.21,SSW,202,2.0,9.0,79,0.00,,---,0.00,0.00,VWS V14.01,2013-05-14 11:10:00,
2013-05-14 04:15:00,47.4,41.2,30.20,SSW,196,5.0,9.0,79,0.00,,---,0.00,0.00,VWS V14.01,2013-05-14 11:15:00,
2013-05-14 04:20:00,47.3,41.1,30.21,SSW,200,3.0,9.0,79,0.00,,---,0.00,0.00,VWS V14.01,2013-05-14 11:20:00,
2013-05-14 04:25:00,47.2,41.0,30.21,SSW,204,2.0,9.0,79,0.00,,---,0.00,0.00,VWS V14.01,2013-05-14 11:25:00,
2013-05-14 04:30:00,47.1,40.9,30.21,SSW,210,6.0,10.0,79,0.00,,---,0.00,0.00,VWS V14.01,2013-05-14 11:30:00,
2013-05-14 04:35:00,47.1,41.3,30.21,SSW,207,2.0,10.0,80,0.00,,---,0.00,0.00,VWS V14.01,2013-05-14 11:35:00,
2013-05-14 04:40:00,47.2,41.4,30.21,SSW,204,5.0,10.0,80,0.00,,---,0.00,0.00,VWS V14.01,2013-05-14 11:40:00,
2013-05-14 04:45:00,47.2,41.4,30.21,SSW,211,7.0,10.0,80,0.00,,---,0.00,0.00,VWS V14.01,2013-05-14 11:45:00,
2013-05-14 04:50:00,47.3,41.1,30.22,SSW,210,6.0,10.0,79,0.00,,---,0.00,0.00,VWS V14.01,2013-05-14 11:50:00,
2013-05-14 04:55:00,47.4,41.2,30.22,SSW,213,1.0,10.0,79,0.00,,---,0.00,0.00,VWS V14.01,2013-05-14 11:55:00,
2013-05-14 05:00:00,47.4,41.2,30.22,SSW,212,4.0,8.0,79,0.00,,---,0.00,0.00,VWS V14.01,2013-05-14 12:00:00,
2013-05-14 05:05:00,47.4,41.2,30.22,SSW,211,2.0,8.0,79,0.00,,---,0.00,0.00,VWS V14.01,2013-05-14 12:05:00,
2013-05-14 05:10:00,47.5,41.3,30.22,SSW,211,5.0,8.0,79,0.00,,---,0.00,0.00,VWS V14.01,2013-05-14 12:10:00,
2013-05-14 05:15:00,47.4,41.2,30.22,SSW,195,5.0,8.0,79,0.00,,---,0.00,0.00,VWS V14.01,2013-05-14 12:15:00,
2013-05-14 05:20:00,47.4,41.2,30.21,SSW,202,8.0,9.0,79,0.00,,---,0.00,0.00,VWS V14.01,2013-05-14 12:20:00,
2013-05-14 05:25:00,47.4,41.2,30.21,SSW,213,7.0,10.0,79,0.00,,---,0.00,0.00,VWS V14.01,2013-05-14 12:25:00,
2013-05-14 05:30:00,47.4,41.2,30.22,SSW,212,4.0,7.0,79,0.00,,---,0.00,0.00,VWS V14.01,2013-05-14 12:30:00,
2013-05-14 05:35:00,47.4,41.2,30.22,SSW,210,2.0,7.0,79,0.00,,---,0.00,0.00,VWS V14.01,2013-05-14 12:35:00,
2013-05-14 05:40:00,47.4,41.2,30.22,SSW,211,5.0,9.0,79,0.00,,---,0.00,0.00,VWS V14.01,2013-05-14 12:40:00,
2013-05-14 05:45:00,47.4,41.2,30.22,SSW,210,5.0,9.0,79,0.00,,---,0.00,0.00,VWS V14.01,2013-05-14 12:45:00,
2013-05-14 05:50:00,47.4,40.9,30.22,SSW,207,6.0,11.0,78,0.00,,---,0.00,0.00,VWS V14.01,2013-05-14 12:50:00,
2013-05-14 05:55:00,47.4,40.9,30.21,SSW,209,5.0,11.0,78,0.00,,---,0.00,5.00,VWS V14.01,2013-05-14 12:55:00,
2013-05-14 06:00:00,47.4,40.9,30.21,SSW,208,4.0,9.0,78,0.00,,---,0.00,9.00,VWS V14.01,2013-05-14 13:00:00,
2013-05-14 06:05:00,47.4,41.2,30.21,SSW,206,6.0,9.0,79,0.00,,---,0.00,9.00,VWS V14.01,2013-05-14 13:05:00,
2013-05-14 06:10:00,47.4,41.2,30.22,SSW,207,5.0,9.0,79,0.00,,---,0.00,5.00,VWS V14.01,2013-05-14 13:10:00,
2013-05-14 06:15:00,47.4,41.2,30.21,SSW,207,4.0,9.0,79,0.00,,---,0.00,7.00,VWS V14.01,2013-05-14 13:15:00,
2013-05-14 06:20:00,47.5,41.3,30.22,SSW,207,2.0,9.0,79,0.00,,---,0.00,11.00,VWS V14.01,2013-05-14 13:20:00,
2013-05-14 06:25:00,47.5,41.3,30.22,SSW,207,0.0,9.0,79,0.00,,---,0.00,19.00,VWS V14.01,2013-05-14 13:25:00,
2013-05-14 06:30:00,47.5,41.3,30.22,SSW,207,2.0,7.0,79,0.00,,---,0.00,26.00,VWS V14.01,2013-05-14 13:30:00,
2013-05-14 06:35:00,47.6,41.4,30.22,SSW,207,3.0,7.0,79,0.00,,---,0.00,40.00,VWS V14.01,2013-05-14 13:35:00,
2013-05-14 06:40:00,47.7,41.5,30.22,SSW,207,0.0,7.0,79,0.00,,---,0.00,58.00,VWS V14.01,2013-05-14 13:40:00,
2013-05-14 06:45:00,47.8,41.6,30.22,SSW,208,0.0,7.0,79,0.00,,---,0.00,53.00,VWS V14.01,2013-05-14 13:45:00,
2013-05-14 06:50:00,47.9,41.4,30.22,SSW,207,0.0,7.0,78,0.00,,---,0.00,49.00,VWS V14.01,2013-05-14 13:50:00,
2013-05-14 06:55:00,48.0,41.5,30.23,SSW,207,0.0,7.0,78,0.00,,---,0.00,53.00,VWS V14.01,2013-05-14 13:55:00,
2013-05-14 07:00:00,48.2,41.3,30.22,SSW,211,4.0,7.0,77,0.00,,---,0.00,83.00,VWS V14.01,2013-05-14 14:00:00,
2013-05-14 07:05:00,48.3,41.4,30.22,SSW,212,8.0,8.0,77,0.00,,---,0.00,95.00,VWS V14.01,2013-05-14 14:05:00,
2013-05-14 07:10:00,48.5,41.6,30.22,SSW,212,0.0,8.0,77,0.00,,---,0.00,74.00,VWS V14.01,2013-05-14 14:10:00,
2013-05-14 07:15:00,48.6,41.4,30.22,SSW,212,2.0,8.0,76,0.00,,---,0.00,44.00,VWS V14.01,2013-05-14 14:15:00,
2013-05-14 07:20:00,48.7,41.5,30.22,SW,214,4.0,8.0,76,0.00,,---,0.00,62.00,VWS V14.01,2013-05-14 14:20:00,
2013-05-14 07:25:00,48.8,41.6,30.22,SSW,212,4.0,8.0,76,0.00,,---,0.00,156.00,VWS V14.01,2013-05-14 14:25:00,
2013-05-14 07:30:00,49.0,41.8,30.22,SSW,209,2.0,9.0,76,0.00,,---,0.00,151.00,VWS V14.01,2013-05-14 14:30:00,
2013-05-14 07:35:00,49.2,41.6,30.22,SW,219,6.0,9.0,75,0.00,,---,0.00,79.00,VWS V14.01,2013-05-14 14:35:00,
2013-05-14 07:40:00,49.4,41.8,30.22,SW,214,5.0,9.0,75,0.00,,---,0.00,153.00,VWS V14.01,2013-05-14 14:40:00,
2013-05-14 07:45:00,49.6,42.0,30.22,SW,214,2.0,9.0,75,0.00,,---,0.00,294.00,VWS V14.01,2013-05-14 14:45:00,
2013-05-14 07:50:00,49.9,42.0,30.22,SW,228,5.0,9.0,74,0.00,,---,0.00,148.00,VWS V14.01,2013-05-14 14:50:00,
2013-05-14 07:55:00,50.1,41.8,30.22,SW,219,5.0,9.0,73,0.00,,---,0.00,107.00,VWS V14.01,2013-05-14 14:55:00,
2013-05-14 08:00:00,50.3,42.0,30.22,SW,221,1.0,8.0,73,0.00,,---,0.00,97.00,VWS V14.01,2013-05-14 15:00:00,
2013-05-14 08:05:00,50.4,42.4,30.22,SW,221,5.0,8.0,74,0.00,,---,0.00,118.00,VWS V14.01,2013-05-14 15:05:00,
2013-05-14 08:10:00,50.5,42.2,30.22,SW,214,6.0,9.0,73,0.00,,---,0.00,127.00,VWS V14.01,2013-05-14 15:10:00,
2013-05-14 08:15:00,50.5,42.5,30.22,SW,230,5.0,9.0,74,0.00,,---,0.00,130.00,VWS V14.01,2013-05-14 15:15:00,
2013-05-14 08:20:00,50.6,42.6,30.22,SW,227,1.0,9.0,74,0.00,,---,0.00,102.00,VWS V14.01,2013-05-14 15:20:00,
2013-05-14 08:25:00,50.7,42.4,30.22,SW,232,0.0,9.0,73,0.00,,---,0.00,111.00,VWS V14.01,2013-05-14 15:25:00,
2013-05-14 08:30:00,50.7,42.7,30.22,SW,232,0.0,6.0,74,0.00,,---,0.00,105.00,VWS V14.01,2013-05-14 15:30:00,
2013-05-14 08:35:00,50.8,42.5,30.22,WSW,244,9.0,11.0,73,0.00,,---,0.00,118.00,VWS V14.01,2013-05-14 15:35:00,
2013-05-14 08:40:00,50.8,42.8,30.22,WSW,241,5.0,11.0,74,0.00,,---,0.00,135.00,VWS V14.01,2013-05-14 15:40:00,
2013-05-14 08:45:00,50.8,42.5,30.22,WSW,244,9.0,11.0,73,0.00,,---,0.00,118.00,VWS V14.01,2013-05-14 15:45:00,
2013-05-14 08:50:00,50.7,42.4,30.22,West,279,3.0,11.0,73,0.00,,---,0.00,83.00,VWS V14.01,2013-05-14 15:50:00,
2013-05-14 08:55:00,50.7,42.7,30.22,WSW,247,2.0,11.0,74,0.00,,---,0.00,134.00,VWS V14.01,2013-05-14 15:55:00,
2013-05-14 09:00:00,50.7,42.7,30.22,WSW,247,5.0,6.0,74,0.00,,---,0.00,130.00,VWS V14.01,2013-05-14 16:00:00,
2013-05-14 09:05:00,50.8,42.8,30.22,West,269,6.0,9.0,74,0.00,,---,0.00,178.00,VWS V14.01,2013-05-14 16:05:00,
2013-05-14 09:10:00,50.8,42.8,30.21,West,269,4.0,9.0,74,0.00,,---,0.00,155.00,VWS V14.01,2013-05-14 16:10:00,
2013-05-14 09:15:00,50.9,42.9,30.21,West,259,4.0,9.0,74,0.00,,---,0.00,163.00,VWS V14.01,2013-05-14 16:15:00,
2013-05-14 09:20:00,51.1,43.5,30.22,SW,233,3.0,9.0,75,0.00,,---,0.00,195.00,VWS V14.01,2013-05-14 16:20:00,
2013-05-14 09:25:00,51.4,43.4,30.21,WSW,253,4.0,9.0,74,0.00,,---,0.00,146.00,VWS V14.01,2013-05-14 16:25:00,
2013-05-14 09:30:00,51.7,43.3,30.21,WNW,300,6.0,8.0,73,0.00,,---,0.00,506.00,VWS V14.01,2013-05-14 16:30:00,
2013-05-14 09:35:00,52.1,43.4,30.22,WSW,245,7.0,11.0,72,0.00,,---,0.00,643.00,VWS V14.01,2013-05-14 16:35:00,
2013-05-14 09:40:00,52.5,43.8,30.21,WSW,239,6.0,14.0,72,0.00,,---,0.00,260.00,VWS V14.01,2013-05-14 16:40:00,
2013-05-14 09:45:00,52.7,43.6,30.22,WSW,240,6.0,14.0,71,0.00,,---,0.00,469.00,VWS V14.01,2013-05-14 16:45:00,
2013-05-14 09:50:00,53.0,43.9,30.22,WSW,243,5.0,14.0,71,0.00,,---,0.00,675.00,VWS V14.01,2013-05-14 16:50:00,
2013-05-14 09:55:00,53.5,43.6,30.22,West,269,8.0,14.0,69,0.00,,---,0.00,647.00,VWS V14.01,2013-05-14 16:55:00,
2013-05-14 10:00:00,53.9,43.6,30.22,West,279,8.0,10.0,68,0.00,,---,0.00,666.00,VWS V14.01,2013-05-14 17:00:00,
2013-05-14 10:05:00,54.1,43.4,30.22,WNW,293,7.0,12.0,67,0.00,,---,0.00,703.00,VWS V14.01,2013-05-14 17:05:00,
2013-05-14 10:10:00,54.4,44.1,30.22,WNW,287,8.0,12.0,68,0.00,,---,0.00,707.00,VWS V14.01,2013-05-14 17:10:00,
2013-05-14 10:15:00,54.7,44.0,30.22,West,279,6.0,12.0,67,0.00,,---,0.00,570.00,VWS V14.01,2013-05-14 17:15:00,
2013-05-14 10:20:00,55.0,44.3,30.22,WSW,246,7.0,12.0,67,0.00,,---,0.00,731.00,VWS V14.01,2013-05-14 17:20:00,
2013-05-14 10:25:00,55.4,44.6,30.22,WSW,241,6.0,12.0,67,0.00,,---,0.00,624.00,VWS V14.01,2013-05-14 17:25:00,
2013-05-14 10:30:00,55.6,44.0,30.22,WNW,283,7.0,8.0,65,0.00,,---,0.00,578.00,VWS V14.01,2013-05-14 17:30:00,
2013-05-14 10:35:00,55.5,43.5,30.22,West,274,2.0,10.0,64,0.00,,---,0.00,689.00,VWS V14.01,2013-05-14 17:35:00,
2013-05-14 10:40:00,55.5,43.5,30.22,West,263,6.0,11.0,64,0.00,,---,0.00,673.00,VWS V14.01,2013-05-14 17:40:00,
2013-05-14 10:45:00,55.9,43.9,30.22,SW,219,1.0,11.0,64,0.00,,---,0.00,745.00,VWS V14.01,2013-05-14 17:45:00,
2013-05-14 10:50:00,56.2,44.6,30.22,WNW,296,7.0,11.0,65,0.00,,---,0.00,763.00,VWS V14.01,2013-05-14 17:50:00,
2013-05-14 10:55:00,56.5,44.1,30.22,WNW,289,6.0,11.0,63,0.00,,---,0.00,779.00,VWS V14.01,2013-05-14 17:55:00,
2013-05-14 11:00:00,56.7,43.8,30.22,WSW,242,5.0,7.0,62,0.00,,---,0.00,689.00,VWS V14.01,2013-05-14 18:00:00,
2013-05-14 11:05:00,56.8,43.1,30.22,NW,306,9.0,9.0,60,0.00,,---,0.00,714.00,VWS V14.01,2013-05-14 18:05:00,
2013-05-14 11:10:00,56.7,43.0,30.22,West,263,7.0,10.0,60,0.00,,---,0.00,775.00,VWS V14.01,2013-05-14 18:10:00,
2013-05-14 11:15:00,56.8,43.1,30.22,WNW,291,3.0,10.0,60,0.00,,---,0.00,812.00,VWS V14.01,2013-05-14 18:15:00,
2013-05-14 11:20:00,56.8,42.6,30.22,West,279,6.0,10.0,59,0.00,,---,0.00,807.00,VWS V14.01,2013-05-14 18:20:00,
2013-05-14 11:25:00,56.8,43.1,30.22,WSW,247,7.0,10.0,60,0.00,,---,0.00,758.00,VWS V14.01,2013-05-14 18:25:00,
2013-05-14 11:30:00,57.3,44.0,30.22,WSW,254,4.0,9.0,61,0.00,,---,0.00,714.00,VWS V14.01,2013-05-14 18:30:00,
2013-05-14 11:35:00,57.8,43.1,30.22,NW,314,7.0,10.0,58,0.00,,---,0.00,765.00,VWS V14.01,2013-05-14 18:35:00,
2013-05-14 11:40:00,57.6,43.4,30.22,WNW,284,7.0,10.0,59,0.00,,---,0.00,805.00,VWS V14.01,2013-05-14 18:40:00,
2013-05-14 11:45:00,57.8,43.6,30.22,WNW,283,5.0,10.0,59,0.00,,---,0.00,831.00,VWS V14.01,2013-05-14 18:45:00,
2013-05-14 11:50:00,57.6,42.5,30.22,NW,311,6.0,10.0,57,0.00,,---,0.00,758.00,VWS V14.01,2013-05-14 18:50:00,
2013-05-14 11:55:00,57.2,42.6,30.21,NW,306,4.0,10.0,58,0.00,,---,0.00,788.00,VWS V14.01,2013-05-14 18:55:00,
2013-05-14 12:00:00,57.2,43.0,30.22,WNW,289,5.0,7.0,59,0.00,,---,0.00,803.00,VWS V14.01,2013-05-14 19:00:00,
2013-05-14 12:05:00,57.5,43.3,30.21,WNW,291,5.0,8.0,59,0.00,,---,0.00,752.00,VWS V14.01,2013-05-14 19:05:00,
2013-05-14 12:10:00,57.6,42.5,30.21,WNW,298,4.0,8.0,57,0.00,,---,0.00,694.00,VWS V14.01,2013-05-14 19:10:00,
2013-05-14 12:15:00,57.7,43.0,30.21,NW,306,4.0,8.0,58,0.00,,---,0.00,656.00,VWS V14.01,2013-05-14 19:15:00,
2013-05-14 12:19:00,57.7,41.2,30.20,WNW,293,2.0,8.0,54,0.00,,---,0.00,700.00,VWS V14.01,2013-05-14 19:19:00,
2013-05-14 12:24:00,57.8,41.8,30.20,West,279,0.0,8.0,55,0.00,,---,0.00,698.00,VWS V14.01,2013-05-14 19:24:00,
2013-05-14 12:29:00,58.1,42.5,30.20,WSW,252,5.0,8.0,56,0.00,,---,0.00,742.00,VWS V14.01,2013-05-14 19:29:00,
2013-05-14 12:30:00,57.8,42.2,30.20,West,262,8.0,8.0,56,0.00,,---,0.00,673.00,VWS V14.01,2013-05-14 19:30:00,
2013-05-14 12:34:00,58.4,43.2,30.20,WSW,256,7.0,9.0,57,0.00,,---,0.00,798.00,VWS V14.01,2013-05-14 19:34:00,
2013-05-14 12:39:00,58.7,43.1,30.20,West,269,7.0,9.0,56,0.00,,---,0.00,816.00,VWS V14.01,2013-05-14 19:39:00,
2013-05-14 12:44:00,58.9,43.7,30.20,West,274,4.0,9.0,57,0.00,,---,0.00,766.00,VWS V14.01,2013-05-14 19:44:00,
2013-05-14 12:49:00,58.9,43.2,30.19,WNW,284,2.0,9.0,56,0.00,,---,0.00,819.00,VWS V14.01,2013-05-14 19:49:00,
2013-05-14 12:54:00,59.0,43.3,30.19,NW,304,0.0,10.0,56,0.00,,---,0.00,849.00,VWS V14.01,2013-05-14 19:54:00,
2013-05-14 12:59:00,59.0,42.9,30.19,NW,304,0.0,7.0,55,0.00,,---,0.00,744.00,VWS V14.01,2013-05-14 19:59:00,
2013-05-14 13:00:00,59.0,42.9,30.20,NW,304,6.0,10.0,55,0.00,,---,0.00,874.00,VWS V14.01,2013-05-14 20:00:00,
2013-05-14 13:04:00,59.0,42.9,30.19,NW,304,5.0,8.0,55,0.00,,---,0.00,244.00,VWS V14.01,2013-05-14 20:04:00,
2013-05-14 13:09:00,59.2,42.6,30.19,WSW,257,7.0,9.0,54,0.00,,---,0.00,155.00,VWS V14.01,2013-05-14 20:09:00,
2013-05-14 13:14:00,59.5,42.4,30.19,West,279,5.0,9.0,53,0.00,,---,0.00,137.00,VWS V14.01,2013-05-14 20:14:00,
2013-05-14 13:19:00,59.7,43.5,30.19,NNW,327,6.0,9.0,55,0.00,,---,0.00,130.00,VWS V14.01,2013-05-14 20:19:00,
2013-05-14 13:24:00,59.8,42.2,30.19,NW,306,5.0,9.0,52,0.00,,---,0.00,123.00,VWS V14.01,2013-05-14 20:24:00,
2013-05-14 13:29:00,59.9,41.8,30.19,WSW,254,1.0,7.0,51,0.00,,---,0.00,134.00,VWS V14.01,2013-05-14 20:29:00,
2013-05-14 13:30:00,59.8,42.2,30.19,WSW,253,6.0,9.0,52,0.00,,---,0.00,118.00,VWS V14.01,2013-05-14 20:30:00,
2013-05-14 13:34:00,60.0,42.8,30.19,West,279,5.0,9.0,53,0.00,,---,0.00,137.00,VWS V14.01,2013-05-14 20:34:00,
2013-05-14 13:39:00,60.1,41.9,30.19,WSW,250,6.0,10.0,51,0.00,,---,0.00,114.00,VWS V14.01,2013-05-14 20:39:00,
2013-05-14 13:44:00,60.2,42.0,30.19,WNW,291,3.0,10.0,51,0.00,,---,0.00,104.00,VWS V14.01,2013-05-14 20:44:00,
2013-05-14 13:49:00,60.2,42.0,30.18,WSW,257,4.0,10.0,51,0.00,,---,0.00,90.00,VWS V14.01,2013-05-14 20:49:00,
2013-05-14 13:54:00,60.4,42.2,30.18,WNW,286,4.0,10.0,51,0.00,,---,0.00,86.00,VWS V14.01,2013-05-14 20:54:00,
2013-05-14 13:59:00,60.7,40.9,30.18,WSW,250,0.0,10.0,48,0.00,,---,0.00,76.00,VWS V14.01,2013-05-14 20:59:00,
2013-05-14 14:00:00,60.5,42.3,30.18,West,264,7.0,10.0,51,0.00,,---,0.00,81.00,VWS V14.01,2013-05-14 21:00:00,
2013-05-14 14:04:00,60.8,42.6,30.18,West,274,6.0,10.0,51,0.00,,---,0.00,70.00,VWS V14.01,2013-05-14 21:04:00,
2013-05-14 14:09:00,60.8,41.0,30.18,NW,312,4.0,10.0,48,0.00,,---,0.00,63.00,VWS V14.01,2013-05-14 21:09:00,
2013-05-14 14:14:00,60.6,40.8,30.18,NW,314,1.0,10.0,48,0.00,,---,0.00,63.00,VWS V14.01,2013-05-14 21:14:00,
2013-05-14 14:19:00,60.4,40.1,30.18,NNE,13,5.0,10.0,47,0.00,,---,0.00,60.00,VWS V14.01,2013-05-14 21:19:00,
2013-05-14 14:24:00,60.4,40.6,30.18,NW,308,1.0,10.0,48,0.00,,---,0.00,56.00,VWS V14.01,2013-05-14 21:24:00,
2013-05-14 14:29:00,60.5,41.3,30.18,WSW,252,2.0,6.0,49,0.00,,---,0.00,60.00,VWS V14.01,2013-05-14 21:29:00,
2013-05-14 14:30:00,60.4,42.2,30.18,WSW,241,6.0,10.0,51,0.00,,---,0.00,56.00,VWS V14.01,2013-05-14 21:30:00,
2013-05-14 14:34:00,60.7,42.0,30.18,WSW,241,1.0,9.0,50,0.00,,---,0.00,58.00,VWS V14.01,2013-05-14 21:34:00,
2013-05-14 14:39:00,60.8,40.5,30.18,West,269,3.0,9.0,47,0.00,,---,0.00,53.00,VWS V14.01,2013-05-14 21:39:00,
2013-05-14 14:44:00,60.9,40.5,30.17,NW,306,1.0,9.0,47,0.00,,---,0.00,53.00,VWS V14.01,2013-05-14 21:44:00,
2013-05-14 14:49:00,61.1,41.8,30.17,NNW,345,4.0,9.0,49,0.00,,---,0.00,51.00,VWS V14.01,2013-05-14 21:49:00,
2013-05-14 14:54:00,61.1,39.6,30.17,NNE,21,4.0,9.0,45,0.00,,---,0.00,53.00,VWS V14.01,2013-05-14 21:54:00,
2013-05-14 14:59:00,61.2,41.4,30.17,NNE,32,0.0,5.0,48,0.00,,---,0.00,53.00,VWS V14.01,2013-05-14 21:59:00,
2013-05-14 15:00:00,61.1,41.8,30.17,NNE,26,0.0,9.0,49,0.00,,---,0.00,53.00,VWS V14.01,2013-05-14 22:00:00,
2013-05-14 15:04:00,61.3,40.9,30.17,WSW,249,1.0,8.0,47,0.00,,---,0.00,51.00,VWS V14.01,2013-05-14 22:04:00,
2013-05-14 15:09:00,61.7,41.3,30.17,WNW,283,9.0,10.0,47,0.00,,---,0.00,67.00,VWS V14.01,2013-05-14 22:09:00,
2013-05-14 15:14:00,62.0,40.4,30.16,WSW,242,5.0,10.0,45,0.00,,---,0.00,65.00,VWS V14.01,2013-05-14 22:14:00,
2013-05-14 15:19:00,62.1,39.4,30.16,SSW,212,4.0,10.0,43,0.00,,---,0.00,70.00,VWS V14.01,2013-05-14 22:19:00,
2013-05-14 15:24:00,62.2,38.8,30.16,WNW,286,4.0,10.0,42,0.00,,---,0.00,69.00,VWS V14.01,2013-05-14 22:24:00,
2013-05-14 15:29:00,62.2,38.8,30.16,WNW,296,0.0,8.0,42,0.00,,---,0.00,88.00,VWS V14.01,2013-05-14 22:29:00,
2013-05-14 15:30:00,62.2,39.5,30.16,WNW,285,1.0,10.0,43,0.00,,---,0.00,72.00,VWS V14.01,2013-05-14 22:30:00,
2013-05-14 15:34:00,62.0,38.7,30.16,SW,234,0.0,9.0,42,0.00,,---,0.00,97.00,VWS V14.01,2013-05-14 22:34:00,
2013-05-14 15:39:00,62.1,41.1,30.16,WNW,296,6.0,9.0,46,0.00,,---,0.00,74.00,VWS V14.01,2013-05-14 22:39:00,
2013-05-14 15:44:00,62.3,40.1,30.15,WNW,291,1.0,9.0,44,0.00,,---,0.00,79.00,VWS V14.01,2013-05-14 22:44:00,
2013-05-14 15:49:00,62.5,39.7,30.15,West,279,8.0,9.0,43,0.00,,---,0.00,65.00,VWS V14.01,2013-05-14 22:49:00,
2013-05-14 15:54:00,62.8,39.4,30.15,NW,317,4.0,10.0,42,0.00,,---,0.00,72.00,VWS V14.01,2013-05-14 22:54:00,
2013-05-14 15:59:00,62.8,40.0,30.15,West,279,2.0,8.0,43,0.00,,---,0.00,79.00,VWS V14.01,2013-05-14 22:59:00,
2013-05-14 16:00:00,62.8,38.8,30.15,NW,317,1.0,10.0,41,0.00,,---,0.00,79.00,VWS V14.01,2013-05-14 23:00:00,
2013-05-14 16:04:00,62.8,40.0,30.15,West,279,5.0,8.0,43,0.00,,---,0.00,70.00,VWS V14.01,2013-05-14 23:04:00,
2013-05-14 16:09:00,63.0,40.8,30.14,WNW,289,0.0,8.0,44,0.00,,---,0.00,77.00,VWS V14.01,2013-05-14 23:09:00,
2013-05-14 16:14:00,63.1,39.0,30.14,WNW,283,4.0,10.0,41,0.00,,---,0.00,91.00,VWS V14.01,2013-05-14 23:14:00,
2013-05-14 16:19:00,63.1,40.3,30.14,WNW,285,6.0,10.0,43,0.00,,---,0.00,104.00,VWS V14.01,2013-05-14 23:19:00,
2013-05-14 16:24:00,63.2,40.3,30.14,WSW,257,5.0,10.0,43,0.00,,---,0.00,105.00,VWS V14.01,2013-05-14 23:24:00,
2013-05-14 16:29:00,63.4,39.9,30.14,WNW,285,5.0,8.0,42,0.00,,---,0.00,90.00,VWS V14.01,2013-05-14 23:29:00,
2013-05-14 16:30:00,63.3,40.5,30.14,West,260,0.0,10.0,43,0.00,,---,0.00,98.00,VWS V14.01,2013-05-14 23:30:00,
2013-05-14 16:34:00,63.5,41.2,30.14,West,279,7.0,9.0,44,0.00,,---,0.00,88.00,VWS V14.01,2013-05-14 23:34:00,
2013-05-14 16:39:00,63.6,40.1,30.14,West,259,4.0,9.0,42,0.00,,---,0.00,91.00,VWS V14.01,2013-05-14 23:39:00,
2013-05-14 16:44:00,63.8,39.7,30.14,WNW,288,7.0,9.0,41,0.00,,---,0.00,90.00,VWS V14.01,2013-05-14 23:44:00,
2013-05-14 16:49:00,63.7,40.8,30.14,West,264,2.0,9.0,43,0.00,,---,0.00,83.00,VWS V14.01,2013-05-14 23:49:00,
2013-05-14 16:54:00,63.6,40.7,30.15,West,261,6.0,10.0,43,0.00,,---,0.00,72.00,VWS V14.01,2013-05-14 23:54:00,
2013-05-14 16:59:00,63.6,41.9,30.14,West,279,4.0,5.0,45,0.00,,---,0.00,69.00,VWS V14.01,2013-05-14 23:59:00,
2013-05-14 17:00:00,63.6,39.5,30.14,West,279,4.0,10.0,41,0.00,,---,0.00,74.00,VWS V14.01,2013-05-15 00:00:00,
2013-05-14 17:04:00,63.7,40.8,30.14,West,269,0.0,8.0,43,0.00,,---,0.00,178.00,VWS V14.01,2013-05-15 00:04:00,
2013-05-14 17:09:00,63.8,40.3,30.14,WNW,293,6.0,8.0,42,0.00,,---,0.00,49.00,VWS V14.01,2013-05-15 00:09:00,
2013-05-14 17:14:00,63.7,40.2,30.14,WNW,292,4.0,8.0,42,0.00,,---,0.00,42.00,VWS V14.01,2013-05-15 00:14:00,
2013-05-14 17:19:00,63.6,40.7,30.14,WNW,288,1.0,8.0,43,0.00,,---,0.00,42.00,VWS V14.01,2013-05-15 00:19:00,
2013-05-14 17:24:00,63.6,40.1,30.14,WNW,285,2.0,8.0,42,0.00,,---,0.00,46.00,VWS V14.01,2013-05-15 00:24:00,
2013-05-14 17:29:00,63.6,41.9,30.13,NW,323,5.0,6.0,45,0.00,,---,0.00,47.00,VWS V14.01,2013-05-15 00:29:00,
2013-05-14 17:30:00,63.6,41.3,30.14,WNW,290,6.0,9.0,44,0.00,,---,0.00,47.00,VWS V14.01,2013-05-15 00:30:00,
2013-05-14 17:34:00,63.6,41.9,30.13,North,354,6.0,9.0,45,0.00,,---,0.00,51.00,VWS V14.01,2013-05-15 00:34:00,
2013-05-14 17:39:00,63.6,41.9,30.13,North,350,0.0,9.0,45,0.00,,---,0.00,47.00,VWS V14.01,2013-05-15 00:39:00,
2013-05-14 17:44:00,63.5,43.5,30.13,North,352,0.0,9.0,48,0.00,,---,0.00,46.00,VWS V14.01,2013-05-15 00:44:00,
2013-05-14 17:49:00,63.5,41.2,30.13,North,354,7.0,9.0,44,0.00,,---,0.00,46.00,VWS V14.01,2013-05-15 00:49:00,
2013-05-14 17:54:00,63.2,41.0,30.13,NNW,346,1.0,10.0,44,0.00,,---,0.00,39.00,VWS V14.01,2013-05-15 00:54:00,
2013-05-14 17:59:00,63.0,40.8,30.13,NW,321,1.0,8.0,44,0.00,,---,0.00,40.00,VWS V14.01,2013-05-15 00:59:00,
2013-05-14 18:00:00,63.1,40.3,30.13,NNW,342,4.0,10.0,43,0.00,,---,0.00,40.00,VWS V14.01,2013-05-15 01:00:00,
2013-05-14 18:04:00,62.8,40.0,30.13,NNW,333,4.0,8.0,43,0.00,,---,0.00,33.00,VWS V14.01,2013-05-15 01:04:00,
2013-05-14 18:09:00,62.6,39.8,30.13,NNW,331,1.0,8.0,43,0.00,,---,0.00,21.00,VWS V14.01,2013-05-15 01:09:00,
2013-05-14 18:14:00,62.2,40.0,30.13,NNW,332,1.0,8.0,44,0.00,,---,0.00,25.00,VWS V14.01,2013-05-15 01:14:00,
2013-05-14 18:19:00,61.8,39.7,30.13,NNW,336,0.0,8.0,44,0.00,,---,0.00,23.00,VWS V14.01,2013-05-15 01:19:00,
2013-05-14 18:24:00,61.4,39.3,30.13,NNW,338,4.0,8.0,44,0.00,,---,0.00,25.00,VWS V14.01,2013-05-15 01:24:00,
2013-05-14 18:29:00,61.1,40.2,30.13,NNW,339,2.0,6.0,46,0.00,,---,0.00,26.00,VWS V14.01,2013-05-15 01:29:00,
2013-05-14 18:30:00,61.2,39.7,30.13,NNW,339,2.0,8.0,45,0.00,,---,0.00,25.00,VWS V14.01,2013-05-15 01:30:00,
2013-05-14 18:34:00,60.8,39.9,30.13,NNW,339,1.0,6.0,46,0.00,,---,0.00,26.00,VWS V14.01,2013-05-15 01:34:00,
2013-05-14 18:39:00,60.7,40.4,30.12,NNW,339,4.0,6.0,47,0.00,,---,0.00,25.00,VWS V14.01,2013-05-15 01:39:00,
2013-05-14 18:44:00,60.5,40.2,30.12,NNW,339,1.0,6.0,47,0.00,,---,0.00,19.00,VWS V14.01,2013-05-15 01:44:00,
2013-05-14 18:49:00,60.3,41.1,30.12,NNW,339,0.0,6.0,49,0.00,,---,0.00,23.00,VWS V14.01,2013-05-15 01:49:00,
2013-05-14 18:54:00,60.2,41.0,30.13,NNW,339,0.0,6.0,49,0.00,,---,0.00,25.00,VWS V14.01,2013-05-15 01:54:00,
2013-05-14 18:59:00,59.9,41.2,30.12,NNW,339,0.0,2.0,50,0.00,,---,0.00,21.00,VWS V14.01,2013-05-15 01:59:00,
2013-05-14 19:00:00,60.0,40.8,30.12,NNW,339,0.0,6.0,49,0.00,,---,0.00,25.00,VWS V14.01,2013-05-15 02:00:00,
2013-05-14 19:04:00,59.6,40.4,30.12,NNW,339,0.0,2.0,49,0.00,,---,0.00,19.00,VWS V14.01,2013-05-15 02:04:00,
2013-05-14 19:09:00,59.4,40.8,30.12,NNW,339,0.0,2.0,50,0.00,,---,0.00,25.00,VWS V14.01,2013-05-15 02:09:00,
2013-05-14 19:14:00,59.2,40.1,30.12,NNW,339,1.0,2.0,49,0.00,,---,0.00,25.00,VWS V14.01,2013-05-15 02:14:00,
2013-05-14 19:19:00,59.0,39.9,30.12,NNW,339,1.0,2.0,49,0.00,,---,0.00,21.00,VWS V14.01,2013-05-15 02:19:00,
2013-05-14 19:24:00,59.0,40.4,30.12,NNW,339,0.0,2.0,50,0.00,,---,0.00,19.00,VWS V14.01,2013-05-15 02:24:00,
2013-05-14 19:29:00,59.0,40.4,30.12,NNW,339,0.0,1.0,50,0.00,,---,0.00,18.00,VWS V14.01,2013-05-15 02:29:00,
2013-05-14 19:30:00,59.0,40.9,30.12,NNW,339,0.0,2.0,51,0.00,,---,0.00,18.00,VWS V14.01,2013-05-15 02:30:00,
2013-05-14 19:34:00,59.0,40.9,30.12,NNW,339,0.0,2.0,51,0.00,,---,0.00,21.00,VWS V14.01,2013-05-15 02:34:00,
2013-05-14 19:39:00,59.0,41.4,30.12,NNW,339,0.0,3.0,52,0.00,,---,0.00,19.00,VWS V14.01,2013-05-15 02:39:00,
2013-05-14 19:44:00,59.0,40.9,30.12,NNW,339,1.0,3.0,51,0.00,,---,0.00,14.00,VWS V14.01,2013-05-15 02:44:00,
2013-05-14 19:49:00,59.0,41.4,30.12,NNW,339,0.0,3.0,52,0.00,,---,0.00,11.00,VWS V14.01,2013-05-15 02:49:00,
2013-05-14 19:54:00,58.9,41.3,30.12,NNW,339,0.0,4.0,52,0.00,,---,0.00,7.00,VWS V14.01,2013-05-15 02:54:00,
2013-05-14 19:59:00,58.8,41.2,30.12,NNW,339,0.0,0.0,52,0.00,,---,0.00,5.00,VWS V14.01,2013-05-15 02:59:00,
2013-05-14 20:00:00,58.9,41.3,30.12,NNW,339,0.0,4.0,52,0.00,,---,0.00,7.00,VWS V14.01,2013-05-15 03:00:00,
2013-05-14 20:04:00,58.7,41.1,30.12,NNW,339,0.0,4.0,52,0.00,,---,0.00,5.00,VWS V14.01,2013-05-15 03:04:00,
2013-05-14 20:09:00,58.5,41.9,30.12,NNW,339,2.0,5.0,54,0.00,,---,0.00,0.00,VWS V14.01,2013-05-15 03:09:00,
2013-05-14 20:14:00,58.3,42.2,30.12,NNW,339,0.0,5.0,55,0.00,,---,0.00,0.00,VWS V14.01,2013-05-15 03:14:00,
2013-05-14 20:19:00,58.0,42.4,30.12,NNW,339,0.0,5.0,56,0.00,,---,0.00,0.00,VWS V14.01,2013-05-15 03:19:00,
2013-05-14 20:24:00,57.7,42.1,30.12,NNW,339,0.0,5.0,56,0.00,,---,0.00,0.00,VWS V14.01,2013-05-15 03:24:00,
2013-05-14 20:29:00,57.4,42.8,30.11,NNW,339,0.0,0.0,58,0.00,,---,0.00,0.00,VWS V14.01,2013-05-15 03:29:00,
2013-05-14 20:30:00,57.6,42.5,30.12,NNW,339,0.0,5.0,57,0.00,,---,0.00,0.00,VWS V14.01,2013-05-15 03:30:00,
2013-05-14 20:34:00,57.1,42.0,30.11,NNW,339,0.0,1.0,57,0.00,,---,0.00,0.00,VWS V14.01,2013-05-15 03:34:00,
2013-05-14 20:39:00,56.8,42.2,30.11,NNW,339,0.0,2.0,58,0.00,,---,0.00,0.00,VWS V14.01,2013-05-15 03:39:00,
2013-05-14 20:44:00,56.5,42.4,30.11,NNW,339,0.0,2.0,59,0.00,,---,0.00,0.00,VWS V14.01,2013-05-15 03:44:00,
2013-05-14 20:49:00,56.1,42.4,30.11,NNW,339,0.0,2.0,60,0.00,,---,0.00,0.00,VWS V14.01,2013-05-15 03:49:00,
2013-05-14 20:54:00,55.8,42.6,30.11,NNW,339,0.0,2.0,61,0.00,,---,0.00,0.00,VWS V14.01,2013-05-15 03:54:00,
2013-05-14 20:59:00,55.6,42.4,30.12,NNW,339,0.0,1.0,61,0.00,,---,0.00,0.00,VWS V14.01,2013-05-15 03:59:00,
2013-05-14 21:00:00,55.7,42.5,30.12,NNW,339,0.0,2.0,61,0.00,,---,0.00,0.00,VWS V14.01,2013-05-15 04:00:00,
2013-05-14 21:01:00,55.5,42.3,30.12,NNW,339,0.0,1.0,61,0.00,,---,0.00,0.00,VWS V14.01,2013-05-15 04:01:00,
2013-05-14 21:06:00,55.2,42.4,30.12,NNW,339,0.0,1.0,62,0.00,,---,0.00,0.00,VWS V14.01,2013-05-15 04:06:00,
2013-05-14 21:11:00,55.0,42.7,30.12,NNW,339,0.0,1.0,63,0.00,,---,0.00,0.00,VWS V14.01,2013-05-15 04:11:00,
2013-05-14 21:16:00,54.8,42.9,30.12,NNW,339,1.0,1.0,64,0.00,,---,0.00,0.00,VWS V14.01,2013-05-15 04:16:00,
2013-05-14 21:21:00,54.7,42.8,30.12,NNW,339,0.0,2.0,64,0.00,,---,0.00,0.00,VWS V14.01,2013-05-15 04:21:00,
2013-05-14 21:26:00,54.6,42.3,30.12,NNW,339,1.0,5.0,63,0.00,,---,0.00,0.00,VWS V14.01,2013-05-15 04:26:00,
2013-05-14 21:30:00,54.6,42.3,30.12,NNW,339,0.0,5.0,63,0.00,,---,0.00,0.00,VWS V14.01,2013-05-15 04:30:00,
2013-05-14 21:31:00,54.6,42.7,30.12,NNW,339,0.0,6.0,64,0.00,,---,0.00,0.00,VWS V14.01,2013-05-15 04:31:00,
2013-05-14 21:36:00,54.6,42.7,30.12,NNW,339,2.0,7.0,64,0.00,,---,0.00,0.00,VWS V14.01,2013-05-15 04:36:00,
2013-05-14 21:41:00,54.5,42.6,30.13,NNW,341,0.0,7.0,64,0.00,,---,0.00,0.00,VWS V14.01,2013-05-15 04:41:00,
2013-05-14 21:46:00,54.5,42.6,30.13,NNW,342,0.0,7.0,64,0.00,,---,0.00,0.00,VWS V14.01,2013-05-15 04:46:00,
2013-05-14 21:51:00,54.4,42.5,30.13,NNW,343,2.0,7.0,64,0.00,,---,0.00,0.00,VWS V14.01,2013-05-15 04:51:00,
2013-05-14 21:56:00,54.3,42.0,30.13,North,6,4.0,7.0,63,0.00,,---,0.00,0.00,VWS V14.01,2013-05-15 04:56:00,
2013-05-14 22:00:00,54.3,42.0,30.13,North,6,6.0,7.0,63,0.00,,---,0.00,0.00,VWS V14.01,2013-05-15 05:00:00,
2013-05-14 22:01:00,54.2,41.5,30.13,North,7,4.0,6.0,62,0.00,,---,0.00,0.00,VWS V14.01,2013-05-15 05:01:00,
2013-05-14 22:06:00,54.0,41.7,30.13,North,7,0.0,6.0,63,0.00,,---,0.00,0.00,VWS V14.01,2013-05-15 05:06:00,
2013-05-14 22:11:00,53.9,41.6,30.13,North,8,5.0,6.0,63,0.00,,---,0.00,0.00,VWS V14.01,2013-05-15 05:11:00,
2013-05-14 22:16:00,53.7,41.4,30.13,North,10,5.0,8.0,63,0.00,,---,0.00,0.00,VWS V14.01,2013-05-15 05:16:00,
2013-05-14 22:21:00,53.5,41.2,30.13,North,10,2.0,8.0,63,0.00,,---,0.00,0.00,VWS V14.01,2013-05-15 05:21:00,
2013-05-14 22:26:00,53.3,41.0,30.13,NNE,12,4.0,8.0,63,0.00,,---,0.00,0.00,VWS V14.01,2013-05-15 05:26:00,
2013-05-14 22:30:00,53.3,41.0,30.13,NNE,12,4.0,8.0,63,0.00,,---,0.00,0.00,VWS V14.01,2013-05-15 05:30:00,
2013-05-14 22:31:00,53.1,41.3,30.13,NNE,12,4.0,7.0,64,0.00,,---,0.00,0.00,VWS V14.01,2013-05-15 05:31:00,
2013-05-14 22:36:00,52.9,41.1,30.13,NNE,18,1.0,9.0,64,0.00,,---,0.00,0.00,VWS V14.01,2013-05-15 05:36:00,
2013-05-14 22:41:00,52.6,41.2,30.13,NNE,19,1.0,9.0,65,0.00,,---,0.00,0.00,VWS V14.01,2013-05-15 05:41:00,
2013-05-14 22:46:00,52.4,41.0,30.13,NNE,20,4.0,9.0,65,0.00,,---,0.00,0.00,VWS V14.01,2013-05-15 05:46:00,
2013-05-14 22:51:00,52.2,41.2,30.13,NNE,19,1.0,9.0,66,0.00,,---,0.00,0.00,VWS V14.01,2013-05-15 05:51:00,
2013-05-14 22:56:00,51.9,41.3,30.13,NNE,19,0.0,9.0,67,0.00,,---,0.00,0.00,VWS V14.01,2013-05-15 05:56:00,
2013-05-14 23:00:00,51.9,41.3,30.13,NNE,19,0.0,9.0,67,0.00,,---,0.00,0.00,VWS V14.01,2013-05-15 06:00:00,
2013-05-14 23:01:00,51.7,41.1,30.13,NNE,19,2.0,5.0,67,0.00,,---,0.00,0.00,VWS V14.01,2013-05-15 06:01:00,
2013-05-14 23:06:00,51.5,41.3,30.13,NNE,19,1.0,6.0,68,0.00,,---,0.00,0.00,VWS V14.01,2013-05-15 06:06:00,
2013-05-14 23:11:00,51.4,41.2,30.12,NNE,19,0.0,6.0,68,0.00,,---,0.00,0.00,VWS V14.01,2013-05-15 06:11:00,
2013-05-14 23:16:00,51.3,41.5,30.12,NNE,19,0.0,6.0,69,0.00,,---,0.00,0.00,VWS V14.01,2013-05-15 06:16:00,
2013-05-14 23:21:00,51.1,41.7,30.12,NNE,19,1.0,6.0,70,0.00,,---,0.00,0.00,VWS V14.01,2013-05-15 06:21:00,
2013-05-14 23:26:00,50.9,41.5,30.12,NNE,19,0.0,6.0,70,0.00,,---,0.00,0.00,VWS V14.01,2013-05-15 06:26:00,
2013-05-14 23:30:00,50.9,41.5,30.12,NNE,19,0.0,6.0,70,0.00,,---,0.00,0.00,VWS V14.01,2013-05-15 06:30:00,
2013-05-14 23:31:00,50.7,41.7,30.12,NNE,19,0.0,1.0,71,0.00,,---,0.00,0.00,VWS V14.01,2013-05-15 06:31:00,
2013-05-14 23:36:00,50.5,41.5,30.12,NNE,19,0.0,2.0,71,0.00,,---,0.00,0.00,VWS V14.01,2013-05-15 06:36:00,
2013-05-14 23:41:00,50.3,41.6,30.12,NNE,19,0.0,2.0,72,0.00,,---,0.00,0.00,VWS V14.01,2013-05-15 06:41:00,
2013-05-14 23:46:00,50.1,41.4,30.12,NNE,19,0.0,4.0,72,0.00,,---,0.00,0.00,VWS V14.01,2013-05-15 06:46:00,
2013-05-14 23:51:00,50.0,41.7,30.12,NNE,19,0.0,5.0,73,0.00,,---,0.00,0.00,VWS V14.01,2013-05-15 06:51:00,
2013-05-14 23:56:00,49.8,41.5,30.12,NNE,19,0.0,5.0,73,0.00,,---,0.00,0.00,VWS V14.01,2013-05-15 06:56:00,